STARLINK-35413, 65886

Orbit data source: Space-Track

STARLINK-35413, 65886 is a payload satellite owned by SpaceX/Seattle (US) in LEO that was launched on Tue, 07 Oct 2025 UTC via an FALCON 9 launch vehicle from the Air Force Eastern Test Range (AFETR). Payload-class satellites include a variety of spacecraft equipped with specific instruments for various scientific and technological missions. These include communications satellites like Starlink; space stations such as the ISS; scientific satellites like the Hubble; Earth observation satellites from companies like Planet Labs, Umbra, and HawkEye 360; GPS; miniature CubeSats for education and research; and military/defense satellites.

Loading next visibility...
Identifier
65886, 2025-224E
Orbit
LEO
Country
Flag of USUS
Related business
Manufacturer
SpaceX/Seattle
Mission
Operational Commercial Communications
Bus & Motor
STARLINK V2MO, Unknown motor
Mass
575 kg wet, ~530 kg dry
Launch date (UTC)
2025-10-07 (5 months ago)
Launch vehicle
FALCON 9
Launch site
Air Force Eastern Test Range (AFETR)
Object type
Payload
Rocket body
Debris
Shape & HBR
Box + 2 Pan, 17.7 m
Radar Cross Section
36.964 m²

Expand to show TLE details & history
Last TLE update: 8 hours ago

TLE from 8 hours ago
0 STARLINK-35413
1 65886U 25224E   26062.32809487  .00037947  00000-0  12868-2 0  9992
2 65886  53.1613  40.6662 0001465  78.3867 281.7299 15.30200896 23808
Epoch: 2026-03-03T07:52Z
TLE epoch observation values (Epoch: 2026-03-03T07:52:27.396Z)
Latitude
0.00003°
Longitude
121.44334°
Altitude
475.908 km
Speed
7.629 km/s
True Right ascension
02h 42m 39s
True Declination
0° 00' 00"
Sunlit
Object was in daylight at epoch
Visualization orbit readout
Latitude
Unknown
Longitude
Unknown
Altitude
Unknown
Speed
Unknown
Apparent Right ascension
Unknown
Apparent Declination
Unknown
Sunlit
N/A
Visualization observer readout
Local Sidereal Time
19:34:20
Azimuth
Unknown
Elevation
Unknown
Doppler factor
Unknown
Orbital elements
Apogee altitude
476.473 km
Perigee altitude
474.465 km
Semi-major axis
6,853.606 km
Eccentricity
0.00015
Inclination
53.1613°
RAAN
40.6662°
Arg. of periapsis
78.3867°
True anomaly
281.71346°
Mean anomaly
281.7299°
Eccentric anomaly
281.72168°
Mean motion
3.82529 °/min
Orbital period
94.11 mins
BSTAR
0.0012868
Loading maneuver chart data...
Computing Atmospheric mass density...
Loading historical data...
Loading historical data...
Loading historical data...
Loading historical data...
Loading historical data...
Loading historical data...
Loading historical data...

Documentation

Showing up to 5 results
|